Location: Daytona Beach
(29.2106°N, 81.0231°W)
Time: 22:57:58
(UTC-04:00)

X-37B - Pass Details

Date: 21 June 2021
Orbit: 383 x 392 km, 45.0° (Epoch: 01 July)

Event Time Altitude Azimuth Distance (km) Brightness Sun altitude
Rises 22:57:31 0° 260° (W) 2,246 4.8 -26.4°
Reaches altitude 10° 22:59:52 10° 276° (W) 1,395 3.9 -26.7°
Enters shadow 23:00:57 16° 292° (WNW) 1,079 3.5 -26.8°
